CZ-6A DEB

Satellite information

Favourite Embed

Satellite Type and Status

DEBRISIN ORBIT

Key statistics

Satellite CZ-6A DEB at a glance.

Uptime

439

Days in orbit

Revolutions

≈ 14.4

Per day

Orbit

LEO

Low Earth Orbit

Inclination

88.9

Latest

Satellite identification and parameters

Extended collection of information and parameters for CZ-6A DEB.

Object identification

Identified? True

Debris? True

Object name: CZ-6A DEB

International designator: 2024-140BN

Object number (NORAD): 60661

Object ID (CCSDS): 60661

Country: PEOPLES REPUBLIC OF CHINA (PRC)

Current information (Y/N): Y

RCS size: MEDIUM

Orbital parameters

Period: 99.893 minutes

Inclination: 88.8766 deg

SMA: 7131.524 km

Apoapsis: 787.434 km

Periapsis: 719.343 km

RAAN: 293.8291 deg

Eccentricy: 0.00477389

Argument of periapsis: 22.5469 deg

Mean anomaly: 337.7816 deg

Mean motion: 14.41548549 rev/day

Mean motion (dot): 0.00003548 rev/day2

B* drag term: 0.0010728657 1/REarth

Two-line elements (TLE)

Creation date: Oct. 19, 2025, 2:20 a.m.

Reference frame: TEME

Reference center: EARTH

Epoch: Oct. 18, 2025, 11:25 p.m. UTC

TLE line 0: 0 CZ-6A DEB

TLE line 1: 1 60661U 24140BN 25291.97594108 .00003548 00000-0 10729-2 0 9993

TLE line 2: 2 60661 88.8766 293.8291 0047739 22.5469 337.7816 14.41548549 62789

Live tracking on map

Real-time ground track for satellite CZ-6A DEB.

In-orbit conjunctions

A list of the most updated potential collisions computed for object CZ-6A DEB.

Target Orbit TCA Probability of collision Miss distance Type
COSMOS 773 LEO 2025-03-23 07:40:11 0.002787084 20.0 (m) PAYLOAD
FENGYUN 1C DEB SSO 2025-02-25 05:08:24 0.0001254748 864.0 (m) DEBRIS
CZ-6A DEB LEO 2024-12-26 03:28:14 0.0001225899 670.0 (m) DEBRIS
NOAA 16 DEB SSO 2024-11-23 15:36:39 0.0002759404 404.0 (m) DEBRIS

Associated space launch

18 Low Earth Orbit communication satellites with Ku, Q and V band payloads for the G60 constellation operated by Shanghai Spacecom Satellite Technology (SSST) with funding backed by the Shanghai local government. Initial constellation will consist of 1296 satellites by 2027 with long term plans to expand it to 12000 satellites.

CZ-6A DEB was lifted into orbit during the mission ‘Long March 6A | G60 Polar Group 01’, on board a Long March 6A space rocket.

The launch took place on Aug. 6, 2024, 6:42 a.m. from Launch Complex 9A.

For more information about the launch, click the button.

Launch to space Long March 6A | G60 Polar Group 01
Long March 6A | G60 Polar Group 01

Agency: N/A

Status: Launch Successful

Launch date: Aug. 6, 2024, 6:42 a.m. UTC

Rocket: Long March 6A

Launch pad: Launch Complex 9A

Location: Taiyuan Satellite Launch Center, People's Republic of China

...

Latest news about this satellite

News about space launch
Brightness of first Chinese broadband constellation satellites alarms astronomers

The first satellites of a Chinese broadband constellation are significantly brighter than those of Western systems, posing a new challenge for astronomers.

News about space launch
Chinese rocket stage breaks up into cloud of more than 700 pieces of space debris

HELSINKI — A Chinese Long March 6A rocket’s upper stage has fragmented into a cloud of over 700 pieces of space debris, adding to concerns about long-term orbital safety. China […]

News about space launch
China's Thousand Sails Megaconstellation Kicks Off with Dangerous Debris Field

China's Thousand Sails Megaconstellation Kicks Off with Dangerous Debris Field


Newsletter sign-up

Weekly statistics, charts and insights to help you stay on top of the space industry.